Time,TemperatureF,DewpointF,PressureIn,WindDirection,WindDirectionDegrees,WindSpeedMPH,WindSpeedGustMPH,Humidity,HourlyPrecipIn,Conditions,Clouds,dailyrainin,SoftwareType,DateUTC
2013-03-15 00:00:00,34.6,18.3,30.10,South,174,5.0,5.0,51,0.00,,,0.03,Wunderground v.1.15,2013-03-15 04:00:00,
2013-03-15 00:05:00,34.7,18.9,30.09,WSW,241,5.0,5.0,52,0.00,,,0.00,Wunderground v.1.15,2013-03-15 04:05:00,
2013-03-15 00:15:00,34.7,18.9,30.09,West,266,5.0,5.0,52,0.00,,,0.00,Wunderground v.1.15,2013-03-15 04:15:00,
2013-03-15 00:20:00,34.7,18.9,30.09,NE,47,6.0,6.0,52,0.00,,,0.00,Wunderground v.1.15,2013-03-15 04:20:00,
2013-03-15 00:30:00,34.6,19.2,30.09,SW,224,5.0,5.0,53,0.00,,,0.00,Wunderground v.1.15,2013-03-15 04:30:00,
2013-03-15 00:40:00,34.6,19.2,30.09,SSW,206,7.0,7.0,53,0.00,,,0.00,Wunderground v.1.15,2013-03-15 04:40:00,
2013-03-15 00:45:00,34.4,19.0,30.09,NW,314,5.0,7.0,53,0.00,,,0.00,Wunderground v.1.15,2013-03-15 04:45:00,
2013-03-15 00:55:00,34.3,19.4,30.09,NW,314,6.0,13.0,54,0.00,,,0.00,Wunderground v.1.15,2013-03-15 04:55:00,
2013-03-15 01:05:00,34.5,19.1,30.09,WNW,298,8.0,16.0,53,0.00,,,0.00,Wunderground v.1.15,2013-03-15 05:05:00,
2013-03-15 01:15:00,34.5,19.5,30.09,NW,309,7.0,9.0,54,0.00,,,0.00,Wunderground v.1.15,2013-03-15 05:15:00,
2013-03-15 01:20:00,34.4,19.5,30.09,West,263,5.0,6.0,54,0.00,,,0.00,Wunderground v.1.15,2013-03-15 05:20:00,
2013-03-15 01:30:00,34.3,19.8,30.08,South,181,6.0,6.0,55,0.00,,,0.00,Wunderground v.1.15,2013-03-15 05:30:00,
2013-03-15 01:40:00,33.7,19.7,30.08,SSW,212,2.0,2.0,56,0.00,,,0.00,Wunderground v.1.15,2013-03-15 05:40:00,
2013-03-15 01:45:00,33.6,20.0,30.08,South,190,2.0,2.0,57,0.00,,,0.00,Wunderground v.1.15,2013-03-15 05:45:00,
2013-03-15 01:55:00,33.4,20.6,30.08,SSW,211,3.0,3.0,59,0.00,,,0.00,Wunderground v.1.15,2013-03-15 05:55:00,
2013-03-15 02:05:00,33.0,19.8,30.08,North,4,3.0,3.0,58,0.00,,,0.00,Wunderground v.1.15,2013-03-15 06:05:00,
2013-03-15 02:15:00,33.1,19.9,30.07,ESE,108,2.0,3.0,58,0.00,,,0.00,Wunderground v.1.15,2013-03-15 06:15:00,
2013-03-15 02:25:00,32.8,20.0,30.07,SW,224,1.0,3.0,59,0.00,,,0.00,Wunderground v.1.15,2013-03-15 06:25:00,
2013-03-15 02:30:00,32.7,19.5,30.07,WNW,299,2.0,3.0,58,0.00,,,0.00,Wunderground v.1.15,2013-03-15 06:30:00,
2013-03-15 02:40:00,32.8,19.6,30.08,NW,313,4.0,4.0,58,0.00,,,0.00,Wunderground v.1.15,2013-03-15 06:40:00,
2013-03-15 02:50:00,32.9,19.7,30.07,SW,235,2.0,6.0,58,0.00,,,0.00,Wunderground v.1.15,2013-03-15 06:50:00,
2013-03-15 03:00:00,33.1,19.5,30.07,West,267,6.0,6.0,57,0.00,,,0.00,Wunderground v.1.15,2013-03-15 07:00:00,
2013-03-15 03:05:00,33.0,19.8,30.07,West,266,5.0,6.0,58,0.00,,,0.00,Wunderground v.1.15,2013-03-15 07:05:00,
2013-03-15 03:15:00,32.9,19.3,30.06,SSW,205,5.0,12.0,57,0.00,,,0.00,Wunderground v.1.15,2013-03-15 07:15:00,
2013-03-15 03:20:00,32.9,19.3,30.06,West,277,6.0,7.0,57,0.00,,,0.00,Wunderground v.1.15,2013-03-15 07:20:00,
2013-03-15 03:25:00,33.0,19.4,30.06,WNW,303,7.0,7.0,57,0.00,,,0.00,Wunderground v.1.15,2013-03-15 07:25:00,
2013-03-15 03:35:00,32.9,19.7,30.06,SE,135,5.0,7.0,58,0.00,,,0.00,Wunderground v.1.15,2013-03-15 07:35:00,
2013-03-15 03:45:00,32.8,19.6,30.05,NNE,28,2.0,3.0,58,0.00,,,0.00,Wunderground v.1.15,2013-03-15 07:45:00,
2013-03-15 03:55:00,32.7,19.5,30.05,NW,309,2.0,7.0,58,0.00,,,0.00,Wunderground v.1.15,2013-03-15 07:55:00,
2013-03-15 04:05:00,32.9,19.3,30.04,West,265,3.0,4.0,57,0.00,,,0.00,Wunderground v.1.15,2013-03-15 08:05:00,
2013-03-15 04:15:00,32.9,19.3,30.04,SSW,203,4.0,4.0,57,0.00,,,0.00,Wunderground v.1.15,2013-03-15 08:15:00,
2013-03-15 04:20:00,32.9,19.7,30.04,West,267,3.0,3.0,58,0.00,,,0.00,Wunderground v.1.15,2013-03-15 08:20:00,
2013-03-15 04:30:00,33.3,19.3,30.04,SW,232,6.0,6.0,56,0.00,,,0.00,Wunderground v.1.15,2013-03-15 08:30:00,
2013-03-15 04:40:00,33.5,19.0,30.04,WSW,238,5.0,7.0,55,0.00,,,0.00,Wunderground v.1.15,2013-03-15 08:40:00,
2013-03-15 04:50:00,33.3,18.9,30.03,WNW,288,5.0,5.0,55,0.00,,,0.00,Wunderground v.1.15,2013-03-15 08:50:00,
2013-03-15 05:00:00,33.2,18.8,30.03,WSW,253,6.0,6.0,55,0.00,,,0.00,Wunderground v.1.15,2013-03-15 09:00:00,
2013-03-15 05:05:00,33.1,19.1,30.02,SW,228,6.0,6.0,56,0.00,,,0.00,Wunderground v.1.15,2013-03-15 09:05:00,
2013-03-15 05:15:00,33.0,18.6,30.02,SW,228,6.0,9.0,55,0.00,,,0.00,Wunderground v.1.15,2013-03-15 09:15:00,
2013-03-15 05:25:00,33.2,18.8,30.02,West,278,7.0,8.0,55,0.00,,,0.00,Wunderground v.1.15,2013-03-15 09:25:00,
2013-03-15 05:35:00,33.0,18.6,30.02,North,359,4.0,6.0,55,0.00,,,0.00,Wunderground v.1.15,2013-03-15 09:35:00,
2013-03-15 05:40:00,33.0,19.0,30.02,SSW,194,4.0,7.0,56,0.00,,,0.00,Wunderground v.1.15,2013-03-15 09:40:00,
2013-03-15 05:50:00,33.3,18.4,30.01,WSW,239,6.0,6.0,54,0.00,,,0.00,Wunderground v.1.15,2013-03-15 09:50:00,
2013-03-15 06:00:00,33.5,18.6,30.01,SSW,208,7.0,9.0,54,0.00,,,0.00,Wunderground v.1.15,2013-03-15 10:00:00,
2013-03-15 06:05:00,33.6,18.3,30.01,SW,215,7.0,10.0,53,0.00,,,0.00,Wunderground v.1.15,2013-03-15 10:05:00,
2013-03-15 06:15:00,33.6,18.3,30.01,WSW,256,6.0,11.0,53,0.00,,,0.00,Wunderground v.1.15,2013-03-15 10:15:00,
2013-03-15 06:25:00,33.8,18.0,30.01,WSW,237,8.0,10.0,52,0.00,,,0.00,Wunderground v.1.15,2013-03-15 10:25:00,
2013-03-15 06:30:00,33.7,18.4,30.01,NW,311,6.0,6.0,53,0.00,,,0.00,Wunderground v.1.15,2013-03-15 10:30:00,
2013-03-15 06:40:00,33.7,17.9,30.01,SW,231,4.0,8.0,52,0.00,,,0.00,Wunderground v.1.15,2013-03-15 10:40:00,
2013-03-15 06:50:00,33.7,17.9,30.01,South,170,4.0,4.0,52,0.00,,,0.00,Wunderground v.1.15,2013-03-15 10:50:00,
2013-03-15 07:00:00,34.1,17.8,30.01,West,274,6.0,6.0,51,0.00,,,0.00,Wunderground v.1.15,2013-03-15 11:00:00,
2013-03-15 07:05:00,34.3,18.0,30.00,East,95,5.0,6.0,51,0.00,,,0.00,Wunderground v.1.15,2013-03-15 11:05:00,
2013-03-15 07:15:00,34.3,18.0,30.01,WNW,298,2.0,4.0,51,0.00,,,0.00,Wunderground v.1.15,2013-03-15 11:15:00,
2013-03-15 07:20:00,34.3,18.0,30.00,WSW,251,4.0,7.0,51,0.00,,,0.00,Wunderground v.1.15,2013-03-15 11:20:00,
2013-03-15 07:30:00,34.2,17.5,30.00,SSE,162,3.0,4.0,50,0.00,,,0.00,Wunderground v.1.15,2013-03-15 11:30:00,
2013-03-15 07:40:00,34.2,17.9,30.00,NE,49,3.0,3.0,51,0.00,,,0.00,Wunderground v.1.15,2013-03-15 11:40:00,
2013-03-15 07:50:00,34.5,17.8,30.00,WSW,244,5.0,9.0,50,0.00,,,0.00,Wunderground v.1.15,2013-03-15 11:50:00,
2013-03-15 08:00:00,34.8,17.6,30.00,SSW,206,5.0,7.0,49,0.00,,,0.00,Wunderground v.1.15,2013-03-15 12:00:00,
2013-03-15 08:05:00,34.9,18.1,30.00,NW,323,5.0,7.0,50,0.00,,,0.00,Wunderground v.1.15,2013-03-15 12:05:00,
2013-03-15 08:15:00,35.1,17.8,30.00,North,359,3.0,8.0,49,0.00,,,0.00,Wunderground v.1.15,2013-03-15 12:15:00,
2013-03-15 08:20:00,35.3,17.5,29.99,WSW,240,3.0,13.0,48,0.00,,,0.00,Wunderground v.1.15,2013-03-15 12:20:00,
2013-03-15 08:30:00,35.6,17.8,29.99,SSW,195,6.0,6.0,48,0.00,,,0.00,Wunderground v.1.15,2013-03-15 12:30:00,
2013-03-15 08:40:00,35.8,18.0,29.99,NNE,12,3.0,3.0,48,0.00,,,0.00,Wunderground v.1.15,2013-03-15 12:40:00,
2013-03-15 08:50:00,35.9,18.1,29.99,North,359,5.0,5.0,48,0.00,,,0.00,Wunderground v.1.15,2013-03-15 12:50:00,
2013-03-15 09:00:00,36.0,17.7,29.98,WSW,251,5.0,5.0,47,0.00,,,0.00,Wunderground v.1.15,2013-03-15 13:00:00,
2013-03-15 09:05:00,36.0,18.2,29.98,WNW,289,3.0,5.0,48,0.00,,,0.00,Wunderground v.1.15,2013-03-15 13:05:00,
2013-03-15 09:15:00,36.3,18.5,29.98,West,269,5.0,5.0,48,0.00,,,0.00,Wunderground v.1.15,2013-03-15 13:15:00,
2013-03-15 09:25:00,36.5,18.6,29.98,SSW,207,3.0,4.0,48,0.00,,,0.00,Wunderground v.1.15,2013-03-15 13:25:00,
2013-03-15 09:30:00,36.7,18.8,29.97,WSW,240,4.0,10.0,48,0.00,,,0.00,Wunderground v.1.15,2013-03-15 13:30:00,
2013-03-15 09:40:00,37.1,18.7,29.97,West,262,3.0,3.0,47,0.00,,,0.00,Wunderground v.1.15,2013-03-15 13:40:00,
2013-03-15 09:50:00,37.4,19.0,29.96,East,90,3.0,3.0,47,0.00,,,0.00,Wunderground v.1.15,2013-03-15 13:50:00,
2013-03-15 10:00:00,38.0,19.5,29.96,South,182,3.0,3.0,47,0.00,,,0.00,Wunderground v.1.15,2013-03-15 14:00:00,
2013-03-15 10:05:00,38.4,20.4,29.96,WNW,297,3.0,3.0,48,0.00,,,0.00,Wunderground v.1.15,2013-03-15 14:05:00,
2013-03-15 10:15:00,39.3,20.7,29.95,SSW,212,6.0,9.0,47,0.00,,,0.00,Wunderground v.1.15,2013-03-15 14:15:00,
2013-03-15 10:25:00,40.4,21.7,29.95,East,85,4.0,6.0,47,0.00,,,0.00,Wunderground v.1.15,2013-03-15 14:25:00,
2013-03-15 10:35:00,41.7,22.4,29.94,WNW,286,3.0,4.0,46,0.00,,,0.00,Wunderground v.1.15,2013-03-15 14:35:00,
2013-03-15 10:40:00,42.1,22.8,29.95,SW,214,4.0,4.0,46,0.00,,,0.00,Wunderground v.1.15,2013-03-15 14:40:00,
2013-03-15 10:45:00,43.0,24.1,29.95,SSW,206,2.0,4.0,47,0.00,,,0.00,Wunderground v.1.15,2013-03-15 14:45:00,
2013-03-15 10:50:00,44.0,24.5,29.94,SW,222,3.0,3.0,46,0.00,,,0.00,Wunderground v.1.15,2013-03-15 14:50:00,
2013-03-15 11:00:00,45.0,26.0,29.94,North,4,4.0,4.0,47,0.00,,,0.00,Wunderground v.1.15,2013-03-15 15:00:00,
2013-03-15 11:05:00,45.6,24.4,29.93,SSW,206,4.0,8.0,43,0.00,,,0.00,Wunderground v.1.15,2013-03-15 15:05:00,
2013-03-15 11:15:00,46.1,25.9,29.93,WNW,283,5.0,8.0,45,0.00,,,0.00,Wunderground v.1.15,2013-03-15 15:15:00,
2013-03-15 11:20:00,46.1,26.4,29.93,SW,215,4.0,4.0,46,0.00,,,0.00,Wunderground v.1.15,2013-03-15 15:20:00,
2013-03-15 11:30:00,46.1,25.9,29.93,WSW,240,6.0,6.0,45,0.00,,,0.00,Wunderground v.1.15,2013-03-15 15:30:00,
2013-03-15 11:40:00,47.3,26.5,29.92,SSW,204,4.0,11.0,44,0.00,,,0.00,Wunderground v.1.15,2013-03-15 15:40:00,
2013-03-15 11:45:00,46.9,28.2,29.92,SSW,211,5.0,11.0,48,0.00,,,0.00,Wunderground v.1.15,2013-03-15 15:45:00,
2013-03-15 11:55:00,47.0,26.7,29.92,SW,233,6.0,11.0,45,0.00,,,0.00,Wunderground v.1.15,2013-03-15 15:55:00,
2013-03-15 12:05:00,47.5,29.8,29.91,WSW,258,9.0,9.0,50,0.00,,,0.00,Wunderground v.1.15,2013-03-15 16:05:00,
2013-03-15 12:15:00,48.0,29.2,29.91,South,172,4.0,6.0,48,0.00,,,0.00,Wunderground v.1.15,2013-03-15 16:15:00,
2013-03-15 12:20:00,48.5,29.7,29.91,SW,228,6.0,6.0,48,0.00,,,0.00,Wunderground v.1.15,2013-03-15 16:20:00,
2013-03-15 12:30:00,48.7,30.4,29.90,WSW,239,8.0,10.0,49,0.00,,,0.00,Wunderground v.1.15,2013-03-15 16:30:00,
2013-03-15 12:40:00,49.3,30.9,29.90,WSW,237,8.0,8.0,49,0.00,,,0.00,Wunderground v.1.15,2013-03-15 16:40:00,
2013-03-15 12:50:00,48.2,30.4,29.89,SW,226,14.0,14.0,50,0.00,,,0.00,Wunderground v.1.15,2013-03-15 16:50:00,
2013-03-15 13:00:00,49.1,32.2,29.88,WSW,251,13.0,15.0,52,0.00,,,0.00,Wunderground v.1.15,2013-03-15 17:00:00,
2013-03-15 13:05:00,49.1,31.2,29.88,SW,231,13.0,15.0,50,0.00,,,0.00,Wunderground v.1.15,2013-03-15 17:05:00,
2013-03-15 13:15:00,49.9,32.5,29.88,SW,217,10.0,16.0,51,0.00,,,0.00,Wunderground v.1.15,2013-03-15 17:15:00,
2013-03-15 13:25:00,50.5,32.5,29.87,SW,217,8.0,10.0,50,0.00,,,0.00,Wunderground v.1.15,2013-03-15 17:25:00,
2013-03-15 13:30:00,50.4,32.4,29.87,SW,231,6.0,6.0,50,0.00,,,0.00,Wunderground v.1.15,2013-03-15 17:30:00,
2013-03-15 13:40:00,51.4,33.4,29.86,WSW,253,9.0,12.0,50,0.00,,,0.00,Wunderground v.1.15,2013-03-15 17:40:00,
2013-03-15 13:45:00,51.7,33.6,29.86,NNW,347,9.0,12.0,50,0.00,,,0.00,Wunderground v.1.15,2013-03-15 17:45:00,
2013-03-15 13:55:00,52.6,32.9,29.86,WSW,239,10.0,13.0,47,0.00,,,0.00,Wunderground v.1.15,2013-03-15 17:55:00,
2013-03-15 14:05:00,53.4,33.7,29.85,WSW,249,10.0,11.0,47,0.00,,,0.00,Wunderground v.1.15,2013-03-15 18:05:00,
2013-03-15 14:15:00,53.9,34.6,29.84,SSW,194,9.0,10.0,48,0.00,,,0.00,Wunderground v.1.15,2013-03-15 18:15:00,
2013-03-15 14:20:00,53.2,32.9,29.84,SW,225,10.0,10.0,46,0.00,,,0.00,Wunderground v.1.15,2013-03-15 18:20:00,
2013-03-15 14:30:00,53.4,33.1,29.83,WSW,258,9.0,9.0,46,0.00,,,0.00,Wunderground v.1.15,2013-03-15 18:30:00,
2013-03-15 14:40:00,54.1,34.3,29.82,WSW,239,8.0,9.0,47,0.00,,,0.00,Wunderground v.1.15,2013-03-15 18:40:00,
2013-03-15 14:45:00,54.5,34.7,29.82,SSW,211,8.0,9.0,47,0.00,,,0.00,Wunderground v.1.15,2013-03-15 18:45:00,
2013-03-15 14:55:00,55.0,34.0,29.82,SW,223,10.0,10.0,45,0.00,,,0.00,Wunderground v.1.15,2013-03-15 18:55:00,
2013-03-15 15:05:00,55.4,33.3,29.82,West,272,10.0,10.0,43,0.00,,,0.00,Wunderground v.1.15,2013-03-15 19:05:00,
2013-03-15 15:15:00,54.2,32.7,29.81,WSW,246,11.0,13.0,44,0.00,,,0.00,Wunderground v.1.15,2013-03-15 19:15:00,
2013-03-15 15:25:00,54.5,32.4,29.81,NW,319,10.0,11.0,43,0.00,,,0.00,Wunderground v.1.15,2013-03-15 19:25:00,
2013-03-15 15:35:00,55.1,32.4,29.82,SW,215,8.0,9.0,42,0.00,,,0.00,Wunderground v.1.15,2013-03-15 19:35:00,
2013-03-15 15:45:00,54.4,32.9,29.81,West,280,9.0,14.0,44,0.00,,,0.00,Wunderground v.1.15,2013-03-15 19:45:00,
2013-03-15 15:55:00,53.6,32.2,29.81,SW,233,11.0,15.0,44,0.00,,,0.00,Wunderground v.1.15,2013-03-15 19:55:00,
2013-03-15 16:00:00,53.7,32.8,29.81,WSW,252,10.0,10.0,45,0.00,,,0.00,Wunderground v.1.15,2013-03-15 20:00:00,
2013-03-15 16:05:00,54.0,34.2,29.80,SW,215,8.0,10.0,47,0.00,,,0.00,Wunderground v.1.15,2013-03-15 20:05:00,
2013-03-15 16:15:00,54.5,33.6,29.80,West,268,6.0,9.0,45,0.00,,,0.00,Wunderground v.1.15,2013-03-15 20:15:00,
2013-03-15 16:25:00,54.1,33.2,29.79,SW,220,8.0,8.0,45,0.00,,,0.00,Wunderground v.1.15,2013-03-15 20:25:00,
2013-03-15 16:30:00,54.5,33.6,29.79,SSW,209,7.0,7.0,45,0.00,,,0.00,Wunderground v.1.15,2013-03-15 20:30:00,
2013-03-15 16:40:00,54.6,33.7,29.79,SW,216,5.0,6.0,45,0.00,,,0.00,Wunderground v.1.15,2013-03-15 20:40:00,
2013-03-15 16:50:00,55.0,34.0,29.79,SW,214,7.0,7.0,45,0.00,,,0.00,Wunderground v.1.15,2013-03-15 20:50:00,
2013-03-15 17:00:00,55.0,32.9,29.79,SSW,208,8.0,8.0,43,0.00,,,0.00,Wunderground v.1.15,2013-03-15 21:00:00,
2013-03-15 17:05:00,54.7,32.6,29.79,SW,231,8.0,8.0,43,0.00,,,0.00,Wunderground v.1.15,2013-03-15 21:05:00,
2013-03-15 17:15:00,54.9,34.5,29.79,SW,220,6.0,6.0,46,0.00,,,0.00,Wunderground v.1.15,2013-03-15 21:15:00,
2013-03-15 17:20:00,54.8,33.3,29.79,SW,224,6.0,6.0,44,0.00,,,0.00,Wunderground v.1.15,2013-03-15 21:20:00,
2013-03-15 17:30:00,54.0,33.1,29.78,SW,221,7.0,9.0,45,0.00,,,0.00,Wunderground v.1.15,2013-03-15 21:30:00,
2013-03-15 17:40:00,53.3,32.5,29.78,SW,215,7.0,10.0,45,0.00,,,0.00,Wunderground v.1.15,2013-03-15 21:40:00,
2013-03-15 17:45:00,53.0,32.8,29.78,SW,214,8.0,10.0,46,0.00,,,0.00,Wunderground v.1.15,2013-03-15 21:45:00,
2013-03-15 17:55:00,53.0,32.8,29.78,WSW,253,8.0,11.0,46,0.00,,,0.00,Wunderground v.1.15,2013-03-15 21:55:00,
2013-03-15 18:05:00,52.5,32.8,29.78,West,266,7.0,9.0,47,0.00,,,0.00,Wunderground v.1.15,2013-03-15 22:05:00,
2013-03-15 18:15:00,52.3,32.6,29.79,West,277,4.0,5.0,47,0.00,,,0.00,Wunderground v.1.15,2013-03-15 22:15:00,
2013-03-15 18:20:00,52.1,32.5,29.79,WSW,258,6.0,6.0,47,0.00,,,0.00,Wunderground v.1.15,2013-03-15 22:20:00,
2013-03-15 18:30:00,51.6,32.5,29.78,WSW,242,5.0,8.0,48,0.00,,,0.00,Wunderground v.1.15,2013-03-15 22:30:00,
2013-03-15 18:40:00,51.3,32.8,29.79,SW,223,4.0,5.0,49,0.00,,,0.00,Wunderground v.1.15,2013-03-15 22:40:00,
2013-03-15 18:45:00,51.1,32.6,29.79,SW,231,4.0,5.0,49,0.00,,,0.00,Wunderground v.1.15,2013-03-15 22:45:00,
2013-03-15 18:55:00,50.8,32.8,29.78,SW,232,4.0,4.0,50,0.00,,,0.00,Wunderground v.1.15,2013-03-15 22:55:00,
2013-03-15 19:05:00,50.5,32.5,29.78,SSW,195,2.0,3.0,50,0.00,,,0.00,Wunderground v.1.15,2013-03-15 23:05:00,
2013-03-15 19:15:00,50.1,32.2,29.78,SW,236,2.0,2.0,50,0.00,,,0.00,Wunderground v.1.15,2013-03-15 23:15:00,
2013-03-15 19:25:00,49.8,32.4,29.79,WSW,242,1.0,4.0,51,0.00,,,0.00,Wunderground v.1.15,2013-03-15 23:25:00,
2013-03-15 19:35:00,49.3,32.4,29.79,WSW,246,2.0,2.0,52,0.00,,,0.00,Wunderground v.1.15,2013-03-15 23:35:00,
2013-03-15 19:45:00,49.1,32.2,29.80,West,260,2.0,2.0,52,0.00,,,0.00,Wunderground v.1.15,2013-03-15 23:45:00,
2013-03-15 19:55:00,48.9,32.5,29.80,West,280,1.0,3.0,53,0.00,,,0.00,Wunderground v.1.15,2013-03-15 23:55:00,
2013-03-15 20:05:00,48.5,32.6,29.80,WSW,258,1.0,1.0,54,0.00,,,0.00,Wunderground v.1.15,2013-03-16 00:05:00,
2013-03-15 20:15:00,48.3,32.9,29.80,West,259,0.0,1.0,55,0.00,,,0.00,Wunderground v.1.15,2013-03-16 00:15:00,
2013-03-15 20:25:00,47.7,32.3,29.80,West,260,1.0,1.0,55,0.00,,,0.00,Wunderground v.1.15,2013-03-16 00:25:00,
2013-03-15 20:30:00,47.6,32.7,29.80,West,260,1.0,1.0,56,0.00,,,0.00,Wunderground v.1.15,2013-03-16 00:30:00,
2013-03-15 20:40:00,47.4,32.9,29.80,West,260,0.0,1.0,57,0.00,,,0.00,Wunderground v.1.15,2013-03-16 00:40:00,
2013-03-15 20:50:00,47.2,32.7,29.80,SW,226,0.0,0.0,57,0.00,,,0.00,Wunderground v.1.15,2013-03-16 00:50:00,
2013-03-15 21:00:00,47.0,32.5,29.80,SW,226,0.0,0.0,57,0.00,,,0.00,Wunderground v.1.15,2013-03-16 01:00:00,
2013-03-15 21:05:00,47.0,33.0,29.79,WSW,244,1.0,1.0,58,0.00,,,0.00,Wunderground v.1.15,2013-03-16 01:05:00,
2013-03-15 21:15:00,46.8,32.8,29.79,NNW,347,1.0,1.0,58,0.00,,,0.00,Wunderground v.1.15,2013-03-16 01:15:00,
2013-03-15 21:20:00,46.9,32.9,29.80,North,354,1.0,1.0,58,0.00,,,0.00,Wunderground v.1.15,2013-03-16 01:20:00,
2013-03-15 21:30:00,47.1,33.1,29.80,NNW,334,1.0,5.0,58,0.00,,,0.00,Wunderground v.1.15,2013-03-16 01:30:00,
2013-03-15 21:40:00,47.7,33.2,29.80,NW,319,2.0,2.0,57,0.00,,,0.00,Wunderground v.1.15,2013-03-16 01:40:00,
2013-03-15 21:45:00,47.4,32.9,29.80,North,11,0.0,2.0,57,0.00,,,0.00,Wunderground v.1.15,2013-03-16 01:45:00,
2013-03-15 21:55:00,47.4,32.9,29.80,West,278,2.0,4.0,57,0.00,,,0.00,Wunderground v.1.15,2013-03-16 01:55:00,
2013-03-15 22:05:00,47.3,33.3,29.79,WNW,289,1.0,1.0,58,0.00,,,0.00,Wunderground v.1.15,2013-03-16 02:05:00,
2013-03-15 22:15:00,47.3,33.3,29.80,West,266,1.0,2.0,58,0.00,,,0.00,Wunderground v.1.15,2013-03-16 02:15:00,
2013-03-15 22:25:00,47.4,33.4,29.79,WNW,291,3.0,3.0,58,0.00,,,0.00,Wunderground v.1.15,2013-03-16 02:25:00,
2013-03-15 22:35:00,47.6,33.5,29.79,WNW,302,3.0,6.0,58,0.00,,,0.00,Wunderground v.1.15,2013-03-16 02:35:00,
2013-03-15 22:40:00,47.5,33.4,29.79,WSW,247,2.0,3.0,58,0.00,,,0.00,Wunderground v.1.15,2013-03-16 02:40:00,
2013-03-15 22:50:00,47.6,33.5,29.79,North,4,2.0,2.0,58,0.00,,,0.00,Wunderground v.1.15,2013-03-16 02:50:00,
2013-03-15 23:00:00,47.6,33.5,29.79,WSW,237,1.0,1.0,58,0.00,,,0.00,Wunderground v.1.15,2013-03-16 03:00:00,
2013-03-15 23:05:00,47.5,33.4,29.79,WSW,256,1.0,3.0,58,0.00,,,0.00,Wunderground v.1.15,2013-03-16 03:05:00,
2013-03-15 23:15:00,47.5,33.9,29.79,WNW,301,3.0,3.0,59,0.00,,,0.00,Wunderground v.1.15,2013-03-16 03:15:00,
2013-03-15 23:25:00,47.6,33.5,29.78,WNW,298,3.0,4.0,58,0.00,,,0.00,Wunderground v.1.15,2013-03-16 03:25:00,
2013-03-15 23:35:00,47.3,33.7,29.78,WSW,257,1.0,3.0,59,0.00,,,0.00,Wunderground v.1.15,2013-03-16 03:35:00,
2013-03-15 23:45:00,47.4,33.8,29.78,NW,326,3.0,3.0,59,0.00,,,0.00,Wunderground v.1.15,2013-03-16 03:45:00,
2013-03-15 23:55:00,47.6,34.0,29.78,WSW,249,2.0,3.0,59,0.00,,,0.00,Wunderground v.1.15,2013-03-16 03:55:00,